Mansfield, OH

2:11 PM EDT on September 21, 2019 (GMT -0400)
Mansfield Lahm Regional

Weather History for KMFD - August, 2019

Change the Weather History Date:

Friday, August 23, 2019

  Actual Average Record
Temperature  
Mean Temperature 66 °F 70 °F  
Max Temperature 74 °F 80 °F 97 °F (1936)
Min Temperature 58 °F 59 °F 41 °F (1946)
Degree Days  
Heating Degree Days 0 1  
Month to date heating degree days 0 4  
Since 1 June heating degree days 30 65  
Since 1 July heating degree days 0 12  
Cooling Degree Days 1 5  
Month to date cooling degree days 200 133  
Year to date cooling degree days 754 523  
Since 1 June cooling degree days 686 477  
Growing Degree Days 14 (Base 50)    
Moisture  
Dew Point 54 °F    
Average Humidity 73    
Maximum Humidity 97    
Minimum Humidity 49    
Precipitation  
Precipitation 0.00 in 0.14 in 2.00 in (1996)
Month to date precipitation 1.51 3.27  
Year to date precipitation 36.00 29.73  
Snow  
Snow 0.00 in 0.00 in - ()
Month to date snowfall 0.0 0.0  
Since 1 June snowfall 0.0 0.0  
Since 1 July snowfall 0.0 0.0  
Snow Depth 0.00 in    
Sea Level Pressure  
Sea Level Pressure 30.13 in    
Wind  
Wind Speed 7 mph (North)    
Max Wind Speed 18 mph    
Max Gust Speed 23 mph    
Visibility 10 miles    
Events      
T = Trace of Precipitation, MM = Missing Value Source: NWS Daily Summary

Daily Weather History Graph

Daily Weather History Graph

Search for Another Location

Airport or City:

Astronomy

Aug. 23, 2019 Rise Set
Actual Time 6:47 AM EDT 8:16 PM EDT
Civil Twilight 6:19 AM EDT 8:45 PM EDT
Nautical Twilight 5:44 AM EDT 9:20 PM EDT
Astronomical Twilight 5:07 AM EDT 9:56 PM EDT
Moon 12:05 AM EDT (8/23) 2:26 PM EDT (8/23)
Length of Visible Light 14h 26m
Length of Day
13h 28m
Waning Gibbous, 50% of the Moon is Illuminated
Aug 23
Waning Gibbous
Aug 30
New
Sep 5
First Quarter
Sep 14
Full
Sep 21
Last Quarter

Hourly Weather History & Observations

Time (EDT) Temp. Dew Point Humidity Pressure Visibility Wind Dir Wind Speed Gust Speed Precip Events Conditions
12:52 AM 62.1 °F 60.1 °F 93% 30.06 in 10.0 mi NE 4.6 mph - N/A   Clear
1:52 AM 61.0 °F 59.0 °F 93% 30.06 in 10.0 mi ENE 4.6 mph - N/A   Clear
2:52 AM 61.0 °F 57.9 °F 90% 30.07 in 10.0 mi NNE 4.6 mph - N/A   Clear
3:52 AM 61.0 °F 57.9 °F 90% 30.07 in 10.0 mi North 4.6 mph - N/A   Clear
4:52 AM 59.0 °F 57.0 °F 93% 30.07 in 10.0 mi North 4.6 mph - N/A   Clear
5:52 AM 57.9 °F 55.9 °F 93% 30.09 in 10.0 mi NNE 3.5 mph - N/A   Clear
6:52 AM 57.9 °F 55.9 °F 93% 30.11 in 10.0 mi Calm Calm - N/A   Clear
7:52 AM 61.0 °F 55.0 °F 81% 30.12 in 10.0 mi NNE 4.6 mph - N/A   Clear
8:52 AM 63.0 °F 55.0 °F 75% 30.13 in 10.0 mi NNE 6.9 mph - N/A   Clear
9:52 AM 64.9 °F 55.9 °F 73% 30.14 in 10.0 mi North 5.8 mph - N/A   Clear
10:52 AM 68.0 °F 53.1 °F 59% 30.15 in 10.0 mi NNE 11.5 mph 17.3 mph N/A   Clear
11:52 AM 69.1 °F 53.1 °F 57% 30.15 in 10.0 mi North 9.2 mph - N/A   Partly Cloudy
12:52 PM 71.1 °F 53.1 °F 53% 30.15 in 10.0 mi North 10.4 mph - N/A   Mostly Cloudy
1:52 PM 72.0 °F 52.0 °F 49% 30.15 in 10.0 mi NNW 10.4 mph - N/A   Mostly Cloudy
2:52 PM 71.1 °F 51.1 °F 49% 30.15 in 10.0 mi North 10.4 mph - N/A   Mostly Cloudy
3:52 PM 71.1 °F 53.1 °F 53% 30.14 in 10.0 mi North 12.7 mph - N/A   Mostly Cloudy
4:52 PM 72.0 °F 51.1 °F 48% 30.14 in 10.0 mi NNE 12.7 mph 20.7 mph N/A   Partly Cloudy
5:52 PM 72.0 °F 52.0 °F 49% 30.14 in 10.0 mi North 11.5 mph - N/A   Clear
6:52 PM 70.0 °F 52.0 °F 53% 30.15 in 10.0 mi North 9.2 mph - N/A   Clear
7:52 PM 66.0 °F 53.1 °F 63% 30.16 in 10.0 mi North 5.8 mph - N/A   Clear
8:52 PM 62.1 °F 53.1 °F 72% 30.16 in 10.0 mi North 5.8 mph - N/A   Clear
9:52 PM 60.1 °F 53.1 °F 78% 30.18 in 10.0 mi North 5.8 mph - N/A   Clear
10:52 PM 60.1 °F 53.1 °F 78% 30.19 in 10.0 mi North 4.6 mph - N/A   Clear
11:52 PM 59.0 °F 54.0 °F 83% 30.20 in 10.0 mi NNW 5.8 mph - N/A   Mostly Cloudy